Whitecourt Airport
CYZU : now visible

Airfield :











YOU CAN JOIN US ON...

 
LOGIN :

Register | Disclaimer

   EN    FR    IT 

 









Legend :    VFR   Marginal VFR   IFR   Intensive IFR   Very Intensive IFR
Visi :
Ceiling :
>= 8 km
>= 3000ft
5 to 8 km
1000 to 3000 ft
1500m to 5 km
500 to 1000 ft
800 to 1500m
200 to 500 ft
< 800m
< 200 ft
Symbols :   Thunderstorms  Fog  Heavy snow  Heavy precipitations  Wind > 20 kt






- Airport Elevation : 2567 ft
- IATA code : YZU


CYZU - Whitecourt

CURRENT METAR :
  • 210400Z 15002KT 15SM SKC 10/M08 A2998 RMK LAST STFD OBS/NXT 211200Z SLP176 DENSITY ALT 2600FT

EXPIRED METARs :
  • 210300Z 14004KT 15SM FEW250 12/M08 A2999 RMK CI1 CI TR SLP179 DENSITY ALT 2800FT
  • 210200Z 16006KT 15SM FEW280 14/M08 A3000 RMK CI1 SLP183 DENSITY ALT 3000FT

Expired Forecast.
CZEG FIR / North America



MET'MAP, your aeronautical weather chart ! - Copyright ORBIFLY December 2007 - Disclaimer

ORBIFLY MET'MAP TEAM :

Programming & Development : Alexandra Zaïnal
Concept & original design : Baudouin d'Aumeries
Assistance for programming : Marc-Olivier Méhu
Technical & hardware support : Manuel Goepfert

Contact : metmap@orbifly.com




SOURCES & CREDITS :

   NOAA       Earth
Advisory